DG4DAZ-6 Weather Reports


Display with metric or nautical units.
time (UTC)temp
F
wind
direction
speed
MPH
gust
MPH
rain 1hr
in
rain 24hr
in
rain mn
in
humidity
%
barometer
mb
20260507025355 43 360 0.0 4.0 0.00 0.18 0.01 98 1010.9
20260507024354 43 360 0.0 2.0 0.00 0.18 0.01 98 1010.9
20260507023355 43 360 0.0 1.0 0.00 0.18 0.01 98 1010.9
20260507022355 43 360 0.0 2.0 0.00 0.18 0.01 98 1010.8
20260507021354 43 360 0.0 3.0 0.00 0.18 0.01 98 1010.8
20260507020355 43 360 0.0 2.0 0.00 0.18 0.01 98 1010.7
20260507015354 43 360 0.0 1.0 0.01 0.21 0.01 97 1010.6
20260507014354 43 360 0.0 1.0 0.01 0.21 0.01 97 1010.5
20260507013355 43 360 0.0 4.0 0.01 0.21 0.01 97 1010.5
20260507012354 43 360 0.0 2.0 0.01 0.21 0.01 97 1010.4
20260507011356 43 360 0.0 1.0 0.01 0.21 0.01 97 1010.3
20260507010355 43 360 0.0 2.0 0.01 0.21 0.01 97 1010.2
20260507005354 43 360 0.0 3.0 0.00 0.23 0.00 97 1010.2
20260507004354 43 360 0.0 2.0 0.00 0.23 0.00 97 1010.1
20260507003355 43 360 0.0 1.0 0.00 0.23 0.00 97 1010.1
20260507002354 43 360 0.0 1.0 0.00 0.23 0.00 97 1010.1
20260507001356 43 360 0.0 3.0 0.00 0.23 0.00 97 1010.0
20260507000357 43 360 1.0 3.0 0.00 0.23 0.00 97 1010.1
20260506235355 43 360 0.0 3.0 0.00 0.29 0.00 97 1010.0
20260506234354 43 360 0.0 2.0 0.00 0.29 0.00 97 1009.9
20260506233355 43 360 0.0 1.0 0.00 0.29 0.00 97 1009.9
20260506232354 43 360 0.0 1.0 0.00 0.29 0.00 97 1009.9
20260506231355 43 360 0.0 1.0 0.00 0.29 0.00 97 1009.9
20260506230355 43 360 0.0 1.0 0.00 0.29 0.00 97 1009.8
20260506225354 43 360 0.0 3.0 0.00 0.37 0.00 97 1009.7
20260506224355 43 360 0.0 1.0 0.00 0.37 0.00 97 1009.5
20260506223354 43 360 0.0 3.0 0.00 0.37 0.00 97 1009.4
20260506222354 43 360 0.0 4.0 0.01 0.37 0.00 97 1009.5
20260506221355 43 360 1.0 4.0 0.01 0.37 0.00 97 1009.5
20260506220356 43 360 0.0 1.0 0.01 0.37 0.00 97 1009.5
20260506215355 43 360 0.0 2.0 0.01 0.44 0.44 97 1009.3
20260506214355 43 360 0.0 1.0 0.01 0.44 0.44 97 1009.3
20260506213354 43 360 0.0 1.0 0.01 0.44 0.44 97 1009.3
20260506212354 43 360 0.0 2.0 0.00 0.43 0.43 97 1009.2
20260506211355 43 360 0.0 1.0 0.00 0.43 0.43 97 1009.1
20260506210354 43 360 0.0 1.0 0.00 0.43 0.43 97 1009.1
20260506205356 43 360 1.0 2.0 0.00 0.51 0.43 97 1009.1
20260506204355 43 360 1.0 3.0 0.00 0.51 0.43 97 1009.1
20260506203354 43 360 0.0 2.0 0.00 0.51 0.43 97 1009.0
20260506202354 44 360 0.0 3.0 0.00 0.51 0.43 97 1008.8
20260506201355 44 360 0.0 4.0 0.00 0.51 0.43 97 1008.8
20260506200355 44 360 0.0 1.0 0.00 0.51 0.43 97 1008.7
20260506195355 44 360 0.0 3.0 0.00 0.57 0.43 97 1008.6
20260506194354 44 360 1.0 3.0 0.00 0.57 0.43 97 1008.6
20260506193355 44 360 0.0 2.0 0.00 0.57 0.43 97 1008.4
20260506192354 44 360 1.0 4.0 0.00 0.57 0.43 97 1008.3
20260506191356 44 360 1.0 2.0 0.00 0.57 0.43 97 1008.1
20260506190356 44 360 0.0 3.0 0.00 0.57 0.43 97 1007.9
20260506185355 44 360 0.0 2.0 0.00 0.63 0.43 97 1007.8
20260506184355 44 360 0.0 1.0 0.00 0.63 0.43 97 1007.7
20260506183354 44 360 0.0 1.0 0.00 0.63 0.43 97 1007.6
20260506182356 44 360 0.0 1.0 0.00 0.63 0.43 97 1007.5
20260506181355 44 360 0.0 3.0 0.00 0.63 0.43 97 1007.6
20260506180355 44 360 0.0 1.0 0.00 0.63 0.43 97 1007.5
20260506175354 44 360 0.0 3.0 0.00 0.69 0.43 97 1007.3
20260506174355 44 360 0.0 1.0 0.00 0.69 0.43 97 1007.4
20260506173354 44 360 1.0 2.0 0.00 0.69 0.43 97 1007.2
20260506172354 45 360 0.0 1.0 0.00 0.69 0.43 97 1007.1
20260506171354 45 360 0.0 3.0 0.00 0.69 0.43 97 1007.0
20260506170355 45 360 0.0 5.0 0.00 0.69 0.43 97 1007.0
20260506165354 45 360 0.0 1.0 0.00 0.75 0.43 97 1007.0
20260506164354 45 360 0.0 1.0 0.01 0.75 0.43 97 1006.8
20260506163356 45 360 0.0 2.0 0.01 0.75 0.43 97 1006.8
20260506162355 45 360 0.0 2.0 0.01 0.75 0.43 97 1006.7
20260506161354 45 360 0.0 3.0 0.02 0.75 0.43 97 1006.7
20260506160355 45 263 1.0 2.0 0.02 0.75 0.43 97 1006.7
20260506155354 45 34 0.0 3.0 0.03 0.75 0.43 97 1006.6
20260506154355 45 360 1.0 2.0 0.02 0.74 0.42 97 1006.6
20260506153355 45 360 0.0 3.0 0.02 0.74 0.42 97 1006.6
20260506152354 45 360 0.0 1.0 0.02 0.74 0.42 97 1006.6
20260506151356 45 360 0.0 2.0 0.01 0.74 0.42 97 1006.4
20260506150355 45 360 0.0 4.0 0.02 0.74 0.42 97 1006.4
20260506145354 45 360 0.0 2.0 0.01 0.76 0.41 97 1006.3
20260506144354 45 360 1.0 4.0 0.01 0.76 0.41 97 1006.3
20260506143356 45 360 0.0 3.0 0.02 0.76 0.41 97 1006.3
20260506142355 46 360 0.0 2.0 0.02 0.76 0.41 97 1006.1
20260506141354 46 360 0.0 2.0 0.03 0.76 0.41 97 1006.1
20260506140356 46 360 1.0 3.0 0.02 0.75 0.40 97 1006.0
20260506135356 46 360 0.0 3.0 0.02 0.75 0.40 97 1006.1
20260506134355 46 360 0.0 2.0 0.03 0.75 0.40 97 1006.1
20260506133354 46 360 0.0 3.0 0.02 0.74 0.39 97 1006.1
20260506132355 46 360 1.0 3.0 0.02 0.74 0.39 97 1006.0
20260506131355 46 360 1.0 2.0 0.01 0.74 0.38 97 1006.0
20260506130354 47 360 0.0 2.0 0.01 0.74 0.38 97 1005.9
20260506125355 47 360 0.0 1.0 0.01 0.74 0.38 97 1005.8
20260506124355 47 360 0.0 2.0 0.00 0.73 0.37 97 1005.8
20260506123354 47 360 1.0 3.0 0.00 0.73 0.37 97 1005.7
20260506122355 47 360 0.0 1.0 0.00 0.73 0.37 97 1005.6
20260506121354 48 360 0.0 2.0 0.00 0.73 0.37 97 1005.5
20260506120354 47 360 0.0 2.0 0.00 0.73 0.37 97 1005.4
20260506115355 48 360 0.0 1.0 0.00 0.73 0.37 97 1005.3
20260506114356 48 360 1.0 2.0 0.00 0.73 0.37 97 1005.2
20260506113356 48 360 1.0 3.0 0.00 0.73 0.37 97 1005.3
20260506112355 48 360 0.0 3.0 0.00 0.73 0.37 97 1005.2
20260506111354 48 360 0.0 2.0 0.00 0.73 0.37 97 1005.1
20260506110355 48 360 0.0 1.0 0.00 0.73 0.37 97 1005.1
20260506105355 48 360 0.0 1.0 0.00 0.73 0.37 97 1005.2
20260506104354 48 360 2.0 4.0 0.00 0.73 0.37 97 1005.2
20260506103354 48 360 1.0 3.0 0.00 0.73 0.37 97 1005.1
20260506102355 48 360 0.0 2.0 0.00 0.73 0.37 97 1005.0
20260506101355 48 360 0.0 2.0 0.00 0.73 0.37 97 1004.8
20260506100354 48 360 1.0 2.0 0.00 0.73 0.37 97 1004.9
20260506095356 48 360 0.0 1.0 0.00 0.73 0.37 97 1004.8
20260506094355 48 360 0.0 1.0 0.00 0.73 0.37 97 1004.8
20260506093355 48 360 0.0 1.0 0.00 0.73 0.37 97 1004.9
20260506092355 48 360 1.0 4.0 0.00 0.73 0.37 97 1004.8
20260506091356 48 360 0.0 1.0 0.01 0.73 0.37 97 1004.8
20260506090355 48 360 0.0 1.0 0.01 0.73 0.37 97 1004.6
20260506085355 48 360 0.0 1.0 0.01 0.73 0.37 97 1004.4
20260506084354 48 360 0.0 2.0 0.01 0.73 0.37 97 1004.4
20260506083355 48 360 0.0 1.0 0.01 0.73 0.37 97 1004.3
20260506082355 48 360 0.0 2.0 0.01 0.73 0.37 97 1004.1
20260506081356 47 360 0.0 2.0 0.00 0.72 0.36 97 1004.2
20260506080355 47 360 0.0 1.0 0.01 0.72 0.36 97 1004.2
20260506073355 48 360 0.0 1.0 0.03 0.73 0.36 97 1004.1
20260506072354 48 360 0.0 1.0 0.03 0.73 0.36 97 1004.1
20260506071356 48 360 0.0 2.0 0.04 0.73 0.36 97 1004.1
20260506070355 48 360 0.0 1.0 0.03 0.72 0.36 97 1004.1
20260506062355 48 360 0.0 1.0 0.03 0.69 0.33 97 1003.8
20260506061354 48 360 0.0 1.0 0.03 0.68 0.32 97 1003.8
20260506060354 48 360 0.0 1.0 0.03 0.68 0.32 97 1003.7
20260506051354 48 360 0.0 1.0 0.01 0.67 0.29 97 1003.7
20260506050355 48 360 0.0 2.0 0.01 0.67 0.29 97 1003.7
20260506044354 48 360 0.0 1.0 0.02 0.72 0.29 97 1003.7
20260506043355 48 360 0.0 1.0 0.01 0.71 0.29 97 1003.7
20260506042354 48 360 0.0 1.0 0.01 0.71 0.29 97 1003.7
20260506041356 48 360 0.0 1.0 0.01 0.71 0.29 97 1003.7
20260506040355 49 360 0.0 1.0 0.01 0.71 0.29 97 1003.7
20260506035355 49 360 0.0 3.0 0.02 0.71 0.29 97 1003.7
20260506034354 49 360 0.0 1.0 0.02 0.70 0.28 97 1003.7
20260506033354 49 360 0.0 2.0 0.02 0.70 0.28 97 1003.8
20260506032354 49 360 0.0 1.0 0.03 0.70 0.28 97 1003.7
20260506031355 49 360 0.0 1.0 0.03 0.70 0.28 97 1003.8
20260506030354 49 360 0.0 0.0 0.03 0.70 0.28 97 1003.9